Caslav, Czech Republic

4:23 AM CEST on April 29, 2017 (GMT +0200)
Caslav

Weather History for LKCV - July, 2013

Change the Weather History Date:

Tuesday, July 30, 2013

  Actual Average Record
Temperature  
Mean Temperature 70 °F -  
Max Temperature 77 °F - - ()
Min Temperature 62 °F - - ()
Cooling Degree Days 4    
Growing Degree Days 20 (Base 50)    
Moisture  
Dew Point 61 °F    
Average Humidity 79    
Maximum Humidity 100    
Minimum Humidity 50    
Precipitation  
Precipitation 0.00 in - - ()
Sea Level Pressure  
Sea Level Pressure 30.03 in    
Wind  
Wind Speed 10 mph ()    
Max Wind Speed 18 mph    
Max Gust Speed 32 mph    
Visibility 6.1 miles    
Events Rain    
T = Trace of Precipitation, MM = Missing Value Source: Averaged Metar Reports

Daily Weather History Graph

Daily Weather History Graph

Search for Another Location

Airport or City:

Trip Planner

Search our weather history database for the weather conditions in past years. The results will help you decide how hot, cold, wet, or windy it might be!

Date:

Astronomy

Jul. 30, 2013 Rise Set
Actual Time 5:25 AM CEST 8:43 PM CEST
Civil Twilight 4:46 AM CEST 9:22 PM CEST
Nautical Twilight 3:54 AM CEST 10:13 PM CEST
Astronomical Twilight 2:46 AM CEST 11:20 PM CEST
Moon No Moon Rise 2:43 PM CEST (7/30)
Length of Visible Light 16h 36m
Length of Day
15h 18m
Last Quarter, 43% of the Moon is Illuminated
Jul 30
Last Quarter
Aug 6
New
Aug 14
First Quarter
Aug 21
Full
Aug 28
Last Quarter

Hourly Weather History & Observations

Time (CEST) Temp. Dew Point Humidity Pressure Visibility Wind Dir Wind Speed Gust Speed Precip Events Conditions
12:00 AM 66.2 °F 64.4 °F 94% 29.92 in 6.2 mi West 11.5 mph - N/A   Mostly Cloudy
1:00 AM 66.2 °F 64.4 °F 94% 29.92 in 6.2 mi West 9.2 mph - N/A   Mostly Cloudy
2:00 AM 66.2 °F 64.4 °F 94% 29.95 in 6.2 mi WSW 10.4 mph - N/A   Overcast
3:00 AM 64.4 °F 64.4 °F 100% 29.98 in 6.2 mi West 13.8 mph - N/A Rain Light Rain
4:00 AM 62.6 °F 62.6 °F 100% 29.98 in 5.0 mi West 18.4 mph - N/A Rain Light Rain
5:00 AM 62.6 °F 60.8 °F 94% 29.98 in 6.2 mi West 13.8 mph - N/A Rain Light Rain
6:00 AM 62.6 °F 60.8 °F 94% 30.01 in 6.2 mi West 12.7 mph - N/A   Overcast
7:00 AM 62.6 °F 60.8 °F 94% 30.04 in 6.2 mi West 11.5 mph - N/A Rain Light Rain
8:00 AM 64.4 °F 62.6 °F 94% 30.04 in - West 12.7 mph - N/A   Clear
9:00 AM 66.2 °F 62.6 °F 88% 30.06 in 6.2 mi West 13.8 mph - N/A   Mostly Cloudy
10:00 AM 68.0 °F 62.6 °F 83% 30.06 in 6.2 mi West 13.8 mph - N/A   Mostly Cloudy
11:00 AM 69.8 °F 62.6 °F 78% 30.09 in 6.2 mi WNW 16.1 mph - N/A   Mostly Cloudy
12:00 PM 71.6 °F 59.0 °F 64% 30.06 in 6.2 mi NNW 16.1 mph - N/A   Mostly Cloudy
1:00 PM 73.4 °F 59.0 °F 61% 30.06 in 6.2 mi NNW 10.4 mph - N/A   Scattered Clouds
2:00 PM 75.2 °F 59.0 °F 57% 30.06 in 6.2 mi NW 8.1 mph - N/A   Scattered Clouds
3:00 PM 77.0 °F 57.2 °F 50% 30.06 in 6.2 mi WNW 12.7 mph - N/A   Mostly Cloudy
4:00 PM 73.4 °F 59.0 °F 61% 30.06 in 6.2 mi WNW 15.0 mph 32.2 mph N/A   Scattered Clouds
5:00 PM 68.0 °F 60.8 °F 78% 30.06 in - WNW 11.5 mph - N/A   Clear
6:00 PM 73.4 °F 57.2 °F 57% 30.06 in - Variable 2.3 mph - N/A   Clear
7:00 PM 73.4 °F 59.0 °F 61% 30.06 in - West 6.9 mph - N/A   Clear
8:00 PM 71.6 °F 59.0 °F 64% 30.06 in - West 6.9 mph - N/A   Clear
9:00 PM 66.2 °F 59.0 °F 78% 30.06 in - WSW 4.6 mph - N/A   Clear
10:00 PM 68.0 °F 59.0 °F 73% 30.09 in - WSW 5.8 mph - N/A   Clear
11:00 PM 64.4 °F 57.2 °F 77% 30.09 in - West 5.8 mph - N/A   Clear